Weather in Gaza

Palestinian Territory     31°30′54″N   34°27′31″E
temp.,
°C
wind,
m/s
gust,
m/s
humid.,
%
clouds,
%
prec.,
mm/h
press.,
hPa
HPBL,
m
10 august, wed
wed1000:00+26nne22670 0.0 1008179
03:00+25n22730 0.0 1008168
06:00+25nne117723 0.0 1008167
09:00+27nw126747 0.0 1008938
12:00+30wnw54530 0.0 10081064
15:00+30nw65550 0.0 1007903
18:00+28nw56650 0.0 1006798
21:00+27nnw44690 0.0 1007679
11 august, thu
thu1100:00+26nnw23720 0.0 1007264
03:00+26nnw12760 0.0 1006154
06:00+25n01804 0.0 1007163
09:00+27sw11660 0.0 1008831
12:00+30nw54520 0.0 1007953
15:00+30nw65510 0.0 1007868
18:00+29nnw65590 0.0 1007736
21:00+27nne56670 0.0 1007509
12 august, fri
fri1200:00+26nne35710 0.0 1007247
03:00+26ne23720 0.0 1007157
06:00+24ne12760 0.0 100885
09:00+28nne22600 0.0 1008623
12:00+30nnw65490 0.0 1008846
15:00+31nnw65470 0.0 1007818
18:00+29nnw66530 0.0 1007696
21:00+27n45610 0.0 1008370
13 august, sat
sat1300:00+26n22630 0.0 1008155
03:00+25nnw22660 0.0 1007166
06:00+24nw11700 0.0 1008187
09:00+27w33570 0.0 1008878
12:00+29wnw54550 0.0 1008922
15:00+30nw55550 0.0 1007853
18:00+28nw56660 0.0 1007795
21:00+27nw34749 0.0 1007655
14 august, sun
sun1400:00+26wnw237613 0.0 1007247
03:00+26wnw227763 0.0 1006213
06:00+27wnw236586 0.0 1007964
09:00+28w32600 0.0 1007954
12:00+30wnw54570 0.0 1007941
15:00+30nw65580 0.0 1006863
18:00+28nw55660 0.0 1006748
21:00+27nnw34710 0.0 1008608